Location: Columbia
(38.9520°N, 92.3340°W)
Time: 01:43:21
(UTC-05:00)

Cosmos 1633 - Visible Passes

Search period start: 24 August 2016 00:00
Search period end: 03 September 2016 00:00
Orbit: 473 x 494 km, 82.5° (Epoch: 22 August)

Date Brightness Start Highest point End Pass type
(mag) Time Alt. Az. Time Alt. Az. Time Alt. Az.
24 Aug 2.5 20:11:54 10° S 20:15:32 74° E 20:19:11 10° N visible
25 Aug 6.3 21:25:16 10° W 21:25:57 10° WNW 21:26:38 10° WNW visible
26 Aug 5.8 20:58:27 10° WSW 21:00:53 17° WNW 21:03:19 10° NNW visible
27 Aug 5.1 20:32:44 10° SW 20:35:52 27° WNW 20:39:00 10° NNW visible
28 Aug 4.0 20:07:23 10° SSW 20:10:53 44° W 20:14:23 10° N visible
29 Aug 6.0 06:00:26 10° NNE 06:02:47 16° ENE 06:05:07 10° ESE visible
30 Aug 6.7 05:37:24 10° ENE 05:37:42 10° ENE 05:38:00 10° ENE visible
31 Aug 6.3 20:29:41 10° W 20:31:21 13° WNW 20:33:02 10° NW visible
01 Sep 5.9 20:03:32 10° SW 20:06:18 20° WNW 20:09:03 10° NNW visible
02 Sep 4.5 05:54:52 10° N 05:58:13 35° ENE 06:01:32 10° SSE visible
